Lapse_Rate
7.3 6.5 6.5 6.5 6.5 6.5 6.5 6.5 6.5 6.5 6.5 6.5 6.5 6.5 6.5 7.1 7.4 7.3 7.5 7.9 8.0 8.2 8.8 9.2 9.4 9.5 9.6 9.6 9.4 9.3 9.3 8.3 7.9 9.6 9.4 9.5 9.5 9.7 9.8 9.8 8.1 7.6 7.6 7.1
6.5 6.5 6.5 6.5 6.5 6.5 6.5 6.5 6.5 6.5 6.5 6.5 6.5 6.5 6.5 6.8 7.0 7.4 7.5 7.6 7.5 8.2 8.5 8.8 9.2 9.4 9.5 9.3 9.3 9.3 9.0 7.4 7.6 9.7 9.2 9.6 9.5 9.8 9.8 9.8 9.1 9.1 7.7 7.1
6.5 6.5 6.6 6.5 6.5 6.5 6.5 6.5 6.5 6.5 6.5 6.5 6.5 6.5 6.5 6.6 7.2 7.6 7.8 8.0 8.2 6.4 8.4 8.7 8.9 9.1 9.4 9.3 9.2 9.2 7.6 7.4 7.7 8.7 9.0 8.5 8.9 8.2 9.4 9.6 9.7 9.5 7.8 7.6
6.5 6.7 6.5 6.5 6.5 6.5 6.5 6.5 6.5 6.5 6.5 6.5 6.5 6.5 6.5 6.5 6.5 6.7 7.4 7.8 8.1 8.1 8.6 8.8 9.1 9.1 9.3 9.3 9.5 9.4 8.4 7.3 7.7 7.6 9.2 9.0 8.4 8.1 9.5 9.7 9.8 9.7 7.9 7.9
6.5 6.5 6.5 6.5 6.5 6.5 6.5 6.5 6.5 6.5 6.5 6.5 6.5 6.5 6.5 6.5 6.5 6.5 7.0 7.6 8.0 8.4 8.5 8.7 8.9 9.1 9.4 9.5 9.5 9.5 7.9 7.3 8.4 7.8 8.3 9.3 8.9 9.5 9.6 9.7 9.0 8.9 8.3 7.9
6.5 7.2 6.6 6.5 6.5 6.5 6.5 6.5 6.5 6.5 6.5 6.5 6.5 6.5 6.5 6.5 6.5 6.5 6.9 7.6 7.9 8.3 8.6 8.8 9.0 9.0 9.3 9.6 9.6 9.6 8.0 6.9 7.2 7.2 7.4 7.6 9.0 9.0 9.2 9.3 8.2 9.1 9.6 9.8
6.5 6.5 6.6 6.9 6.5 6.5 6.5 6.5 6.5 6.5 6.5 6.5 6.5 6.5 6.5 6.5 6.5 6.5 6.7 7.3 7.9 8.3 8.5 8.6 8.7 8.8 9.0 9.2 9.3 9.4 8.8 6.6 7.0 7.2 7.5 7.5 7.5 8.1 8.1 9.0 9.4 9.4 9.5 9.7
6.5 6.5 6.5 6.5 6.5 6.5 6.5 6.5 6.5 6.5 6.5 6.5 6.5 6.5 6.5 6.5 7.1 7.3 7.4 7.6 7.8 8.1 8.5 8.6 8.7 8.7 8.8 9.0 9.1 9.2 8.8 7.2 7.3 7.3 7.4 7.6 7.6 8.9 9.5 8.5 9.4 9.7 9.7 9.5
6.5 6.5 6.5 6.5 6.5 6.5 6.5 6.5 6.5 6.5 6.5 6.5 6.5 6.5 6.5 6.5 6.5 6.9 7.2 7.4 7.6 8.0 8.3 8.5 8.8 9.0 8.9 8.9 9.0 9.1 9.0 8.2 8.7 8.8 7.5 7.5 7.6 7.8 9.4 9.4 9.1 9.7 9.5 9.8
6.5 6.5 6.5 6.5 6.7 6.6 6.5 6.5 6.5 6.5 6.5 6.5 6.5 6.5 6.5 6.5 6.5 6.5 6.7 7.2 7.6 8.0 8.2 8.5 8.7 8.8 9.0 9.1 9.2 9.2 9.1 8.3 8.7 9.3 9.2 8.8 8.9 8.1 8.2 9.0 8.2 9.3 9.0 9.4
6.5 6.5 6.5 6.5 6.5 6.5 6.5 6.5 6.5 6.5 6.5 6.5 6.5 6.5 6.5 6.5 6.5 6.5 6.8 7.3 7.6 7.9 8.1 8.4 8.6 8.8 9.0 9.1 8.9 8.7 8.9 9.2 9.2 9.2 9.3 9.2 9.3 9.4 9.1 9.5 9.2 9.1 9.3 8.3
6.5 6.5 6.5 6.5 6.5 6.5 6.5 6.5 6.5 6.5 6.5 6.5 6.5 6.5 6.5 6.5 6.6 6.9 7.1 7.4 7.9 8.1 8.3 8.4 8.6 8.8 8.9 8.8 8.7 6.7 8.4 9.1 9.3 9.3 9.2 9.2 9.1 9.2 9.5 9.4 9.5 9.1 8.8 8.9
6.5 6.5 6.5 6.5 6.5 6.5 6.5 6.5 6.5 6.5 6.5 6.5 6.5 6.5 6.5 6.7 6.7 7.1 7.1 7.5 7.8 8.0 8.2 8.4 8.5 8.5 8.7 8.8 8.2 8.8 8.6 8.6 9.2 9.2 9.2 9.2 9.3 9.2 9.2 9.4 9.3 9.5 9.1 8.5
5.9 6.5 6.5 6.5 6.5 6.5 6.5 6.5 6.5 6.5 6.5 6.5 6.5 6.5 6.5 6.5 6.5 6.9 7.2 7.6 7.8 8.0 8.1 8.2 8.4 8.5 8.7 8.7 6.9 7.1 6.3 8.0 6.8 6.8 9.1 9.0 8.0 9.2 9.4 9.3 8.7 9.4 9.3 9.0
6.5 6.5 6.5 6.5 6.5 6.5 6.5 6.5 6.5 6.5 6.5 6.5 6.5 6.5 6.5 6.5 6.5 7.0 7.4 7.6 7.6 7.8 8.0 8.1 8.3 8.4 8.6 8.7 8.7 8.5 7.9 4.7 5.5 5.7 6.0 7.4 7.6 8.9 9.0 9.2 7.8 7.9 8.7 9.1
6.5 6.5 6.5 6.5 6.5 6.5 6.5 6.5 6.5 6.5 6.5 6.5 6.5 6.5 6.5 7.0 7.3 7.2 7.3 7.4 7.5 7.7 8.0 8.2 8.3 8.3 8.5 8.6 8.7 8.8 8.5 6.9 5.5 4.2 5.8 7.4 8.6 8.1 7.4 7.5 7.6 7.7 7.6 8.1
6.5 6.5 6.5 6.5 6.5 6.5 6.5 6.5 6.5 6.5 6.5 6.5 6.5 6.5 6.5 6.5 6.7 7.1 7.3 7.5 7.6 7.8 8.0 8.1 7.8 7.2 6.8 8.2 7.6 7.8 7.7 7.6 5.7 4.2 5.3 6.5 5.8 5.1 5.8 6.3 5.7 7.3 7.4 8.7
6.5 6.5 6.5 6.5 6.5 6.5 6.5 6.5 6.5 6.5 6.5 6.5 6.5 6.5 6.7 6.8 7.4 7.6 7.9 7.8 7.8 8.0 8.0 8.3 8.4 8.1 8.1 8.2 7.3 6.4 6.6 6.0 6.2 5.8 6.2 5.8 5.3 4.9 4.1 5.9 6.1 5.2 5.8 6.3
6.5 6.5 6.5 6.5 6.5 6.5 6.5 6.5 6.5 6.5 6.5 6.5 6.5 6.5 7.0 7.3 7.5 7.4 8.1 8.3 8.2 8.2 6.4 6.7 8.3 8.5 8.0 8.3 7.7 7.1 5.4 4.4 5.5 6.3 6.6 5.8 6.2 5.7 5.5 5.0 5.1 4.5 4.6 4.0
6.5 6.5 6.5 6.5 6.5 6.5 6.5 6.5 7.1 6.7 6.5 6.7 6.8 6.6 6.8 7.2 6.5 6.5 8.1 8.1 7.7 8.1 8.4 8.2 7.4 7.1 7.2 6.2 6.2 6.2 5.8 5.9 5.4 5.1 6.0 5.4 5.3 4.6 4.5 4.8 4.4 3.6 3.4 2.3
6.5 6.5 6.5 6.5 6.5 6.5 6.5 6.8 7.3 6.5 6.5 7.0 7.2 7.2 7.2 6.6 7.2 7.9 7.1 6.6 6.6 7.5 7.6 6.9 4.8 5.1 7.2 5.5 5.0 5.6 5.1 4.8 4.8 4.8 4.6 5.3 5.6 5.5 5.3 4.8 3.9 2.7 2.3 1.2
6.5 6.5 6.5 6.5 6.5 6.5 7.1 6.8 6.5 6.7 7.3 7.5 7.5 7.5 7.4 7.7 7.8 7.7 7.5 6.6 7.2 8.2 8.5 6.5 4.3 4.7 8.2 6.1 3.9 5.1 5.5 5.7 4.7 4.3 3.9 3.6 4.2 4.7 3.5 2.6 2.1 1.7 1.7 1.4
6.5 6.5 6.5 6.5 6.5 6.8 7.6 7.1 7.7 7.9 7.4 7.5 7.6 7.9 8.0 7.7 7.7 7.6 7.8 8.3 8.2 6.1 7.2 5.8 3.9 4.6 5.5 7.0 5.0 4.3 4.1 4.3 4.3 4.2 2.6 3.1 3.5 3.1 2.9 2.8 2.4 2.3 2.4 2.5
6.5 6.9 6.5 6.5 6.5 6.7 7.4 7.8 7.9 8.0 7.9 8.1 8.3 8.3 8.2 8.0 7.9 7.9 8.3 6.8 7.3 6.1 3.8 4.2 4.3 5.1 5.0 3.4 5.2 4.7 4.4 4.4 3.7 3.1 2.9 3.2 3.4 3.1 3.4 3.0 2.9 2.8 3.1 3.6
6.7 6.7 6.5 6.5 6.6 7.1 7.4 7.8 7.9 8.0 8.3 8.3 8.5 8.5 8.3 8.2 8.0 8.3 7.4 7.3 8.4 6.3 4.3 5.8 5.5 5.1 4.2 4.1 5.3 5.1 5.3 4.7 5.3 5.0 5.0 4.6 5.2 4.6 2.7 1.9 4.4 7.2 3.9 3.9
7.0 6.5 6.5 6.5 7.0 6.9 7.1 8.0 8.3 8.0 8.1 8.3 8.3 8.3 8.6 8.5 8.1 8.4 8.1 6.2 7.8 7.3 6.7 6.4 6.2 6.2 5.8 5.5 5.6 5.7 6.0 6.1 6.4 6.7 7.0 6.4 5.6 5.9 6.5 6.5 4.6 -2.7 -2.5 -3.5
Wind_Speed
7 10 11 8 6 6 4 4 5 4 3 7 7 6 12 11 13 13 10 12 11 11 10 11 11 11 12 12 12 11 9 8 6 5 5 4 5 4 3 4 4 5 4 4
8 12 2 4 4 8 7 6 6 3 1 6 4 7 8 13 13 14 13 12 11 13 12 12 11 13 13 14 13 12 10 9 7 6 4 2 2 3 2 4 4 4 4 3
13 5 3 7 6 9 8 6 4 3 5 7 7 6 7 11 14 14 14 14 14 13 15 15 15 14 15 15 15 14 13 11 9 7 5 4 3 1 4 5 5 5 4 4
10 9 8 7 10 11 8 5 2 6 8 2 2 2 5 7 11 16 15 15 16 18 16 15 17 16 16 15 14 14 14 13 11 9 7 6 4 4 5 4 3 5 5 4
9 10 13 12 13 5 4 4 3 8 7 4 8 5 8 2 4 11 14 16 16 17 18 16 16 16 16 15 14 14 14 13 12 11 9 7 8 7 6 4 7 3 4 6
4 1 5 7 1 6 3 4 5 6 7 10 9 6 7 4 1 2 3 13 17 17 17 18 14 13 16 16 15 14 15 13 13 12 12 11 8 6 4 5 3 5 6 6
11 12 7 7 7 5 12 11 7 7 9 7 6 4 7 3 4 3 1 3 10 16 16 16 16 15 16 17 17 15 15 15 15 14 13 13 11 9 7 6 8 7 5 4
9 13 12 9 14 9 12 13 9 4 8 7 7 5 3 1 4 3 2 3 2 10 14 16 17 15 17 17 17 17 17 15 16 15 14 12 11 7 8 9 8 7 4 7
6 4 6 1 4 10 8 10 9 9 9 8 10 4 8 8 7 5 4 3 4 6 10 16 17 17 17 17 18 18 17 16 16 16 13 13 11 10 8 6 6 6 4 5
2 7 4 7 5 5 9 4 7 9 7 9 5 5 7 6 8 6 6 5 4 3 5 10 13 17 17 17 16 18 18 17 17 15 14 12 12 12 9 8 8 6 3 6
6 6 9 6 7 1 7 10 9 10 5 10 9 4 3 5 3 6 3 3 2 4 5 5 8 13 16 16 12 17 16 17 16 15 14 13 12 13 11 9 8 8 6 6
9 5 5 3 5 0 6 8 8 8 9 8 8 10 3 5 2 1 2 3 4 6 7 7 8 9 14 16 14 13 13 14 15 15 14 13 12 12 11 10 9 9 9 7
10 6 7 12 12 8 7 4 5 7 9 14 10 6 4 4 2 2 4 3 4 5 7 5 6 8 11 15 10 13 13 14 14 14 14 13 13 13 12 11 10 10 9 9
5 10 8 10 7 6 3 9 6 10 10 12 10 12 8 5 4 5 4 4 6 7 6 5 4 5 8 9 8 9 10 11 10 7 13 13 12 12 12 11 9 9 9 9
9 11 6 6 2 4 8 7 7 10 11 12 14 17 11 13 8 8 4 5 6 7 6 4 4 3 6 9 10 11 10 10 11 9 8 12 12 12 11 11 10 9 9 9
9 9 6 9 7 8 10 12 11 12 12 13 13 14 12 6 5 7 7 5 5 3 4 3 3 5 5 7 9 10 11 11 12 7 8 10 10 10 11 11 10 11 9 9
13 8 7 13 4 8 12 16 16 13 13 12 14 12 8 10 8 8 7 5 3 3 3 2 0 1 4 5 5 9 10 11 11 8 6 9 10 10 9 8 7 9 8 9
12 11 8 9 4 12 10 4 7 12 14 13 10 14 11 9 7 3 3 4 3 2 4 2 3 2 3 5 7 6 9 7 8 7 10 10 9 8 5 5 7 5 5 5
8 11 8 9 12 11 7 11 7 9 12 5 9 11 9 5 6 9 4 1 0 5 4 6 6 5 3 1 5 8 7 5 3 6 9 8 6 7 8 7 6 4 5 5
6 7 9 9 11 12 7 5 0 3 13 6 2 5 4 6 8 7 6 3 6 5 6 7 8 8 7 7 5 7 6 6 7 6 5 8 8 7 5 7 6 4 6 6
9 8 12 10 10 10 7 5 5 9 3 2 3 3 5 8 4 8 8 7 5 6 7 8 8 8 9 10 9 11 9 8 7 4 1 6 7 8 6 5 4 5 6 7
12 8 8 9 9 15 10 8 8 4 1 4 3 3 5 7 7 9 9 8 8 9 8 7 8 6 6 7 10 8 8 5 6 6 7 7 5 5 6 9 7 7 7 7
10 9 6 5 4 7 10 2 4 3 4 3 2 4 9 11 10 12 11 12 10 9 7 7 8 6 2 6 6 7 5 6 8 7 7 7 8 8 8 9 8 6 5 5
5 4 5 4 10 7 8 7 3 1 2 3 5 8 8 10 12 11 8 7 8 7 9 9 8 4 5 4 6 9 8 8 8 9 7 7 8 8 7 6 6 6 6 4
3 9 8 6 6 7 7 9 7 5 5 7 8 8 13 14 12 10 7 6 8 8 8 7 3 2 4 5 8 9 8 8 10 9 9 8 7 9 9 8 6 6 7 5
8 9 9 6 14 7 12 11 11 9 8 9 10 11 14 13 11 10 7 5 6 9 9 7 7 7 6 8 8 8 8 8 9 10 8 8 8 7 7 8 9 15 12 11
Wind_Direction
195 228 227 151 238 359 2 21 25 55 132 218 245 254 171 192 191 206 230 196 205 194 163 169 175 169 165 166 173 183 186 178 203 201 203 197 205 187 187 169 143 151 160 180
192 231 74 39 268 269 288 297 78 109 166 229 272 261 219 186 211 218 208 220 204 236 186 178 188 179 187 180 183 188 199 192 204 203 214 296 262 193 173 169 159 173 172 190
240 94 68 245 244 258 250 300 329 329 154 231 288 233 201 202 204 218 223 220 212 215 199 191 191 195 191 193 190 190 193 196 205 222 206 216 234 227 202 182 190 175 181 204
239 255 254 257 251 260 262 28 281 165 209 80 261 102 123 165 204 210 214 218 219 195 223 208 196 195 197 196 195 193 195 195 200 203 218 238 299 265 204 214 160 166 195 201
219 227 234 241 248 244 316 309 200 184 233 233 171 265 114 214 208 202 212 212 217 213 212 212 214 195 200 193 191 192 192 198 206 199 226 212 223 197 215 185 154 181 184 211
284 258 250 246 38 232 151 170 179 201 265 252 128 262 163 131 33 88 187 202 211 221 213 215 208 224 196 193 194 186 189 197 196 200 204 218 231 234 250 218 158 185 211 190
189 211 215 232 173 173 213 208 234 216 207 238 129 220 299 126 178 272 284 185 221 210 219 217 220 203 220 200 193 191 189 194 197 199 202 208 221 234 222 230 217 196 174 222
207 173 206 176 242 221 214 263 280 276 279 278 125 239 231 98 146 172 262 266 204 221 212 220 217 212 221 211 198 199 190 195 194 199 205 207 211 215 216 212 280 222 209 190
172 143 137 233 245 245 193 236 286 294 240 258 269 155 251 196 207 179 181 202 210 203 222 223 225 215 207 208 201 202 200 199 198 200 199 206 208 220 230 242 209 223 241 201
122 147 201 136 181 190 270 348 221 213 274 270 225 229 279 185 211 206 197 208 204 232 242 235 227 227 208 207 204 206 203 198 201 205 199 203 207 210 216 230 230 243 286 271
232 262 144 173 211 229 183 229 230 294 309 298 283 262 85 301 175 189 226 249 268 284 276 252 238 226 218 216 204 205 212 205 202 201 204 206 207 207 209 221 218 226 227 229
212 249 242 27 121 51 275 293 283 253 246 234 299 291 68 109 159 181 250 250 289 304 302 281 248 220 213 214 196 207 206 211 212 202 201 205 206 204 207 215 220 206 225 224
187 242 237 193 182 184 229 177 286 269 278 273 276 292 107 120 221 210 264 275 281 298 293 292 248 226 217 214 206 203 205 214 217 205 197 201 206 203 209 212 216 222 209 217
171 263 268 293 13 352 202 213 233 277 277 286 268 278 262 259 289 273 255 267 286 297 299 303 264 223 214 221 182 206 213 208 208 203 202 200 206 211 215 213 218 220 222 224
238 245 231 263 252 256 288 266 231 266 285 283 297 298 297 294 306 302 300 272 276 293 300 296 281 229 211 210 215 201 194 188 194 191 211 207 206 209 216 215 213 220 222 222
217 246 240 250 220 242 245 255 259 260 266 277 270 275 292 335 305 259 248 258 268 296 272 278 275 298 263 224 219 212 196 182 181 175 198 199 200 203 210 219 209 220 216 222
212 217 224 254 181 252 258 246 249 260 268 265 276 302 355 285 270 259 240 234 259 276 305 278 176 232 250 238 189 211 197 180 173 168 151 193 186 184 193 199 224 229 218 226
214 224 244 270 197 257 288 8 303 282 288 280 275 277 283 280 288 244 229 251 229 258 8 145 94 97 154 153 157 162 153 159 153 149 171 170 162 173 159 168 194 200 219 224
208 219 229 262 251 256 273 241 234 252 282 315 279 294 276 217 242 229 172 228 79 74 82 74 73 52 36 161 181 160 138 117 149 161 177 169 170 174 163 157 165 143 166 158
202 240 249 232 269 273 309 78 45 296 268 136 219 307 269 198 237 97 103 108 107 120 97 80 63 65 48 49 69 96 103 151 168 178 169 168 169 162 149 146 136 110 116 112
190 220 231 238 252 272 89 136 170 252 25 67 340 296 220 214 26 86 100 92 101 104 96 97 70 59 74 91 81 83 79 60 61 79 40 180 177 171 163 130 114 113 115 101
194 211 217 243 267 260 131 153 249 38 28 348 286 240 193 115 128 119 119 121 132 120 99 79 80 50 96 98 94 87 85 99 76 73 65 58 90 124 108 106 100 95 104 100
211 225 287 228 331 120 170 60 140 332 314 315 244 176 163 129 150 149 145 147 142 125 100 69 73 69 60 119 104 109 104 108 101 92 75 57 71 81 98 114 111 105 95 92
191 184 235 190 175 162 172 160 149 164 356 135 141 152 153 150 156 146 132 114 117 112 99 55 30 46 102 93 112 100 91 98 97 89 76 84 91 94 93 86 96 103 108 111
94 160 194 194 138 146 172 180 173 144 140 139 139 141 136 149 154 165 135 132 116 114 82 122 116 90 120 115 121 119 131 118 117 105 107 102 101 96 82 62 37 89 52 23
176 187 200 240 157 209 156 171 157 154 158 156 153 144 145 156 156 162 141 143 138 128 138 138 143 143 133 127 121 123 133 132 127 126 124 120 119 118 127 128 105 64 65 51